Albany, NY (12205)

3:35 PM EST on February 25, 2017 (GMT -0500)
South Colonie - Cook Park Area | | Change Station
Active Advisory: Severe Thunderstorm Watch

Elev 318 ft 42.71 °N, 73.84 °W | Updated 2 seconds ago

Mostly Cloudy
Mostly Cloudy
66.0 °F
Feels Like 66.0 °F
N
3.7
Wind Variable Wind from SW

Today
High -- | Low -- °F
--% Chance of Precip.
Yesterday
High -- | Low -- °F
Precip. -- in
Pressure 29.46 in
Visibility 10.0 miles
Clouds Scattered Clouds 3800 ft
Mostly Cloudy 4600 ft
Mostly Cloudy 9000 ft
Mostly Cloudy 21000 ft
Mostly Cloudy 27000 ft
Dew Point 51 °F
Humidity 58%
Rainfall 0.00 in
Snow Depth Not available.
6:36 AM 5:40 PM
Waning Crescent, 1% visible
METAR KALB 251951Z 17020G32KT 10SM SCT038 BKN046 BKN090 BKN210 BKN270 20/10 A2946 RMK AO2 PK WND 19032/1951 SLP975 SCT V BKN T02000100
Pressure 29.46 in
Visibility 10.0 miles
Clouds Scattered Clouds 3800 ft
Mostly Cloudy 4600 ft
Mostly Cloudy 9000 ft
Mostly Cloudy 21000 ft
Mostly Cloudy 27000 ft
Dew Point 51 °F
Humidity 58%
Rainfall 0.00 in
Snow Depth Not available.
6:36 AM 5:40 PM
Waning Crescent, 1% visible
METAR KALB 251951Z 17020G32KT 10SM SCT038 BKN046 BKN090 BKN210 BKN270 20/10 A2946 RMK AO2 PK WND 19032/1951 SLP975 SCT V BKN T02000100

Get Your Daily Forecast Email!

Thanks for signing up!

Be on the lookout for a verification email in your inbox.

You'll start receiving the daily forecast at 8 AM.

×

10-Day Weather Forecast

Almanac

Astronomy

Feb. 25, 2017 Rise Set
Actual Time
Civil Twilight
Nautical Twilight
Astronomical Twilight
Moon
Length of Visible Light
Length of Day
Tomorrow will be .
, % of the Moon is Illuminated

Today's Extremes

State Highs State Lows

Community

WunderPhotos

Upload Photos

1,962,540 photos uploaded!

WunderBlog® & News

Nearby

Air Quality

  Air Quality AQ Index Pollutant
Not available.

Snow Depth

Station Depth Elevation

Earthquake Activity

City Distance Mag. Time & Date
Minimum magnitude displayed is 2.5.

Coastal Water Temperatures

Place Temperature

Stations

Nearby Weather Stations

Station Location Temp. Windchill Dew Point Humidity Wind Precip. Elev Updated Type
                   

Watches & Warnings

Severe Thunderstorm Watch
Issued: 3:24 PM EST Feb. 25, 2017 – National Weather Service

Severe Thunderstorm Watch 40 remains in effect until 900 PM EST

NY
. New York counties included are

Albany Columbia Delaware
Dutchess Fulton Greene
Montgomery Orange Otsego
Putnam Rensselaer Rockland
Saratoga Schenectady Schoharie
Sullivan Ulster Warren
Washington